Regional Weather Roundup
Issued by NWS

Home | Current Version | Previous Version | Graphics & Text | Print | Product List | Glossary On
Versions: 1 2 3 4 5 6 7 8 9 10 11 12 13 14 15 16 17 18 19 20 21 22 23 24 25 26 27 28 29 30 31 32 33 34 35 36 37 38 39 40 41 42 43 44 45 46 47 48 49 50
000
ASUS45 KTFX 251904
RWRMT
MONTANA HOURLY WEATHER ROUNDUP
NATIONAL WEATHER SERVICE GREAT FALLS MT
104 PM MDT FRI JUL 25 2014

NOTE: "FAIR" INDICATES FEW OR NO CLOUDS BELOW 12000 FEET WITH NO
SIGNIFICANT WEATHER AND/OR OBSTRUCTIONS TO VISIBILITY.

* THESE STATIONS ARE NOT UNDER NWS QUALITY CONTROL. THEY DO NOT
   REPORT WEATHER SUCH AS PRECIPITATION OR FOG.

MTZ001>007-043-252000-
WEST OF THE DIVIDE
CITY           SKY/WX    TMP DP  RH WIND       PRES   REMARKS
KALISPELL      PTCLDY    72  41  33 SW17G23   30.00F
MISSOULA       PTCLDY    72  39  30 N9        30.07F
BUTTE          SUNNY     68  30  24 N6        30.09F
MULLAN PASS    CLOUDY    54  39  57 VRB6      30.18R
* ESSEX        N/A       61  41  48 E3         N/A
* LINCOLN      N/A       63  40  43 S10G22     N/A
* LOOKOUT PASS N/A       59  42  53 SE8G20     N/A
* POLSON       N/A       72  41  33 SW4G10     N/A
* RONAN APT    SUNNY     68  43  40 S7         N/A
* SEELEY LAKE  N/A       65  39  39 W7G21      N/A
* THOMP F APT  SUNNY     67  23  19 S6G17      N/A
$$

MTZ008-052>055-252000-
SOUTHWEST MONTANA
CITY           SKY/WX    TMP DP  RH WIND       PRES   REMARKS
BOZEMAN        SUNNY     72  36  27 N/A       30.03F
DILLON         SUNNY     73  36  26 W12       30.07F
W YELLOWSTONE  SUNNY     66  25  21 SW14G22   30.17F
* THREE FORKS  SUNNY     75  39  27 N/A        N/A
* BOULDER HILL N/A       66  30  26 S14G23     N/A
* RAYNOLDS PAS N/A       67  42  40 SE12G20    N/A
* WHITEHALL    N/A       76  37  24 SW13G20    N/A
* WISE RIVER   N/A       67  28  23 NW17G25    N/A
$$

MTZ009>010-012-014-046-048-049-054-252000-
EAST SLOPES AND CENTRAL MONTANA
CITY           SKY/WX    TMP DP  RH WIND       PRES   REMARKS
CUT BANK       SUNNY    N/A N/A N/A N/A       29.88F
GREAT FALLS    SUNNY     75  34  22 SW28G38   29.90F
HELENA         SUNNY     73  36  26 W14       30.02S
MALMSTROM AFB  SUNNY     73  34  24 SW26G39   29.92F
* CONRAD       SUNNY     72  41  33 SW14G22    N/A
* DEARBORN     N/A       72  33  24 S26G36     N/A
* EAST GLACIER N/A       63  39  41 W23G32     N/A
* MONARCH      N/A       65  30  27 W19G32     N/A
* ROGERS PASS  N/A       59  35  41 SE12G26    N/A
* SAINT MARY   N/A       60  40  48 SW15G34    N/A
* SWEET GRASS  N/A       69  34  28 NW27G43    N/A
$$

MTZ011-013-016-021-035-040-045-047-050-051-252000-
NORTH CENTRAL MONTANA
CITY           SKY/WX    TMP DP  RH WIND       PRES   REMARKS
HAVRE          SUNNY     79  36  21 W32G44    29.79F
LEWISTOWN      SUNNY     77  27  16 W22G32    29.92F
* CHESTER      N/A       71  33  25 W24G42     N/A
* DENTON       N/A       76  33  21 W20G35     N/A
* GEYSER       N/A       72  33  24 W27G40     N/A
* JUDITH GAP   N/A       72  33  24 SW22G31    N/A
* LOMA         N/A       76  33  21 SW27G39    N/A
$$

MTZ017>020-022>027-061-062-252000-
NORTHEAST MONTANA
CITY           SKY/WX    TMP DP  RH WIND       PRES   REMARKS
GLASGOW        SUNNY     81  34  18 W24G32    29.78F
GLENDIVE       SUNNY     81  45  28 SW14G24   29.85F
JORDAN         SUNNY     82  28  14 W17G30    29.83F
SIDNEY         SUNNY     81  43  26 SW20      29.83F
WOLF POINT     SUNNY     81  37  21 W22G29    29.79F
* BEAVER HILL  N/A       76  43  31 S16G26     N/A
* CIRCLE       N/A       79  41  26 W10G19     N/A
* LINDSAY DVD  N/A       77  37  24 SW14G23    N/A
* NAVAJO       N/A       74  46  37 W19G24     N/A
$$

MTZ028>042-056>058-252000-
SOUTHCENTRAL AND SOUTHEAST MONTANA
CITY           SKY/WX    TMP DP  RH WIND       PRES   REMARKS
BAKER          SUNNY     81  37  21 W14G24    29.90F
BILLINGS       SUNNY     81  36  20 SW10      29.92F
LIVINGSTON     SUNNY     81  30  16 W22G28    29.98F
MILES CITY     SUNNY     82  37  20 W10G22    29.86F
* LAUREL APT   SUNNY     79  37  22 N/A        N/A
* ROUNDUP APT  SUNNY     79  28  15 SW15G30    N/A
* ALZADA       N/A       79  39  24 SE2        N/A
* HYSHAM       N/A       78  37  23 W14G20     N/A
* LAME DEER    N/A       78  45  31 SW9G14     N/A
* REED POINT   N/A       80  41  25 W16G22     N/A
* ROSCOE HILL  N/A       76  36  23 NE7        N/A
$$

REGIONAL REPORTS...DAKOTAS
CITY           SKY/WX    TMP DP  RH WIND       PRES   REMARKS
WILLISTON      SUNNY     79  43  28 W13G24    29.81F
DICKINSON      SUNNY     75  43  32 W9        29.88F
CROSBY         SUNNY     72  50  46 SW15G28   29.80F
TIOGA          SUNNY     72  46  40 SW15G24   29.85F
WATFORD CITY   SUNNY     77  45  32 W15G22    29.82F
BISMARCK       SUNNY     81  46  29 NW9       29.85F
GRAND FORKS    PTSUNNY   79  70  74 S7        29.73F
FARGO          PTSUNNY   79  66  65 CALM      29.75F
BUFFALO SD     SUNNY     79  43  28 NW8       29.87F
RAPID CITY     SUNNY     77  45  32 VRB3      29.96F
$$

REGIONAL REPORTS...WYOMING/IDAHO/WASHINGTON
CITY           SKY/WX    TMP DP  RH WIND       PRES   REMARKS
GILLETTE       SUNNY     82  41  23 SE6G16    29.96F
SHERIDAN       SUNNY     82  50  33 E7        29.93F
YELLOWSTONE LA SUNNY     66  19  16 VRB7      30.25S
SALMON         SUNNY     72  36  27 NW7       30.03F
MULLAN PASS    CLOUDY    54  39  57 VRB6      30.18S
SAND POINT     PTCLDY    68  46  45 SW7       30.08S
SPOKANE        SUNNY     66  39  37 S10G16    30.10F

$$



USA.gov is the U.S. government's official web portal to all federal, state and local government web resources and services.